Location: Shannon
(40.5500°S, 175.4167°E)
Time: 21:02:17
(UTC+00:00)

Resurs 1-4 Rocket - Pass Details

Date: 17 November 2025
Orbit: 799 x 811 km, 98.8° (Epoch: 14 December)

Event Time Altitude Azimuth Distance (km) Brightness Sun altitude
Exits shadow 15:38:16 10° 273° (W) 2,407 4.1 -12.2°
Maximum altitude 15:38:42 10° 268° (W) 2,402 4.1 -12.1°
Drops below altitude 10° 15:39:13 10° 263° (W) 2,412 4.2 -12.1°
Sets 15:44:28 0° 219° (SW) 3,356 5.3 -11.3°
